FW4443 Weather Reports


Display with metric or nautical units.
time (UTC)temp
F
wind
direction
speed
MPH
gust
MPH
rain 1hr
in
rain 24hr
in
rain mn
in
humidity
%
barometer
mb
20260509152537 83 19 1.0 4.0 0.00 0.00 0.00 17 1010.9
20260509152211 82 5 1.0 3.0 0.00 0.00 0.00 19 1010.9
20260509151848 82 350 0.0 3.0 0.00 0.00 0.00 18 1010.9
20260509151533 81 342 0.0 2.0 0.00 0.00 0.00 18 1010.9
20260509151218 81 344 0.0 2.0 0.00 0.00 0.00 21 1010.9
20260509150855 80 355 0.0 3.0 0.00 0.00 0.00 20 1011.0
20260509150531 79 306 0.0 3.0 0.00 0.00 0.00 21 1010.9
20260509150206 79 305 1.0 3.0 0.00 0.00 0.00 20 1010.9
20260509145843 78 298 1.0 6.0 0.00 0.00 0.00 22 1010.9
20260509145215 77 305 1.0 6.0 0.00 0.00 0.00 23 1010.9
20260509144854 77 275 1.0 6.0 0.00 0.00 0.00 24 1010.8
20260509144534 76 274 2.0 6.0 0.00 0.00 0.00 26 1010.8
20260509144216 75 288 2.0 6.0 0.00 0.00 0.00 27 1010.9
20260509143856 74 275 2.0 5.0 0.00 0.00 0.00 27 1010.9
20260509143233 72 277 1.0 3.0 0.00 0.00 0.00 30 1010.9
20260509142606 70 281 0.0 2.0 0.00 0.00 0.00 30 1010.8
20260509142250 70 282 0.0 1.0 0.00 0.00 0.00 29 1010.8
20260509141631 69 215 0.0 0.0 0.00 0.00 0.00 32 1010.8
20260509141309 69 215 0.0 0.0 0.00 0.00 0.00 32 1010.7
20260509140950 69 215 0.0 0.0 0.00 0.00 0.00 32 1010.7
20260509140626 69 215 0.0 0.0 0.00 0.00 0.00 33 1010.6
20260509140007 69 0 0.0 1.0 0.00 0.00 0.00 35 1010.6
20260509135642 69 0 0.0 0.0 0.00 0.00 0.00 36 1010.5
20260509135319 68 0 0.0 0.0 0.00 0.00 0.00 35 1010.5
20260509135003 68 215 0.0 1.0 0.00 0.00 0.00 34 1010.5
20260509134644 68 215 0.0 0.0 0.00 0.00 0.00 35 1010.4
20260509134323 68 215 0.0 0.0 0.00 0.00 0.00 35 1010.3
20260509133959 68 215 1.0 2.0 0.00 0.00 0.00 33 1010.3
20260509133643 68 0 1.0 2.0 0.00 0.00 0.00 33 1010.3
20260509133319 68 0 0.0 3.0 0.00 0.00 0.00 33 1010.3
20260509132659 68 0 0.0 3.0 0.00 0.00 0.00 33 1010.2
20260509132340 68 0 0.0 2.0 0.00 0.00 0.00 33 1010.2
20260509132019 68 0 0.0 2.0 0.00 0.00 0.00 32 1010.2
20260509131658 68 0 0.0 2.0 0.00 0.00 0.00 32 1010.1
20260509131342 68 0 0.0 1.0 0.00 0.00 0.00 30 1010.1
20260509131022 68 0 0.0 0.0 0.00 0.00 0.00 30 1009.9
20260509130701 68 0 0.0 3.0 0.00 0.00 0.00 30 1009.8
20260509130336 68 0 0.0 0.0 0.00 0.00 0.00 30 1009.7
20260509130012 69 0 0.0 2.0 0.00 0.00 0.00 29 1009.6
20260509125648 69 0 0.0 2.0 0.00 0.00 0.00 29 1009.7
20260509125326 69 0 0.0 1.0 0.00 0.00 0.00 30 1009.5
20260509125002 69 0 0.0 0.0 0.00 0.00 0.00 29 1009.4
20260509124640 69 0 0.0 1.0 0.00 0.00 0.00 29 1009.5
20260509124319 69 0 0.0 3.0 0.00 0.00 0.00 29 1009.4
20260509124002 69 0 0.0 3.0 0.00 0.00 0.00 29 1009.4
20260509123644 69 0 0.0 3.0 0.00 0.00 0.00 29 1009.4
20260509123323 69 0 0.0 3.0 0.00 0.00 0.00 29 1009.4
20260509123006 69 0 0.0 3.0 0.00 0.00 0.00 29 1009.4
20260509122649 69 0 0.0 1.0 0.00 0.00 0.00 29 1009.3
20260509122334 69 0 0.0 4.0 0.00 0.00 0.00 29 1009.3
20260509121108 70 0 1.0 4.0 0.00 0.00 0.00 28 1009.2
20260509120743 70 0 1.0 4.0 0.00 0.00 0.00 28 1009.2
20260509120421 70 0 0.0 4.0 0.00 0.00 0.00 28 1009.2
20260509120104 70 0 1.0 4.0 0.00 0.00 0.00 28 1009.2
20260509115448 70 0 1.0 4.0 0.00 0.00 0.00 28 1009.1
20260509115127 70 0 1.0 4.0 0.00 0.00 0.00 28 1009.1
20260509114500 70 0 1.0 4.0 0.00 0.00 0.00 28 1009.1
20260509114143 70 0 1.0 4.0 0.00 0.00 0.00 28 1009.1
20260509113822 70 0 2.0 4.0 0.00 0.00 0.00 30 1009.1
20260509113457 70 0 2.0 4.0 0.00 0.00 0.00 27 1009.1
20260509113140 70 0 2.0 4.0 0.00 0.00 0.00 27 1009.1
20260509112817 70 0 1.0 3.0 0.00 0.00 0.00 27 1008.9
20260509112159 71 0 1.0 4.0 0.00 0.00 0.00 27 1009.0
20260509111839 71 0 1.0 4.0 0.00 0.00 0.00 26 1008.9
20260509111522 71 0 1.0 4.0 0.00 0.00 0.00 26 1009.0
20260509111202 71 0 1.0 4.0 0.00 0.00 0.00 26 1008.9
20260509110842 71 0 1.0 4.0 0.00 0.00 0.00 25 1008.9
20260509110526 72 0 1.0 4.0 0.00 0.00 0.00 25 1009.0
20260509110204 72 0 1.0 3.0 0.00 0.00 0.00 24 1008.9
20260509105844 72 0 2.0 3.0 0.00 0.00 0.00 24 1009.0
20260509105522 72 0 2.0 3.0 0.00 0.00 0.00 25 1009.0
20260509105205 72 0 1.0 3.0 0.00 0.00 0.00 25 1008.9
20260509104539 73 0 1.0 3.0 0.00 0.00 0.00 25 1009.0
20260509104219 73 0 0.0 2.0 0.00 0.00 0.00 24 1008.9
20260509103858 73 0 1.0 4.0 0.00 0.00 0.00 25 1009.0
20260509103542 73 0 1.0 4.0 0.00 0.00 0.00 24 1008.9
20260509103217 73 0 2.0 4.0 0.00 0.00 0.00 24 1008.9
20260509102858 73 0 1.0 4.0 0.00 0.00 0.00 24 1008.8
20260509102240 74 0 0.0 4.0 0.00 0.00 0.00 24 1008.9
20260509101313 74 0 0.0 2.0 0.00 0.00 0.00 23 1008.9
20260509100957 75 0 1.0 2.0 0.00 0.00 0.00 23 1008.9
20260509100634 75 0 1.0 2.0 0.00 0.00 0.00 23 1008.9
20260509100309 75 0 1.0 2.0 0.00 0.00 0.00 22 1009.0
20260509095944 75 0 1.0 4.0 0.00 0.00 0.00 23 1008.9
20260509095624 75 0 1.0 4.0 0.00 0.00 0.00 23 1008.8
20260509095309 75 0 1.0 4.0 0.00 0.00 0.00 23 1008.9
20260509094946 75 0 1.0 4.0 0.00 0.00 0.00 23 1008.8
20260509094624 75 0 1.0 4.0 0.00 0.00 0.00 22 1008.9
20260509094301 75 0 1.0 4.0 0.00 0.00 0.00 22 1008.8
20260509093938 75 0 1.0 3.0 0.00 0.00 0.00 22 1008.9
20260509093616 75 0 1.0 7.0 0.00 0.00 0.00 22 1008.8
20260509093251 75 0 2.0 7.0 0.00 0.00 0.00 22 1008.8
20260509092935 75 0 2.0 7.0 0.00 0.00 0.00 22 1008.7
20260509092616 75 0 2.0 7.0 0.00 0.00 0.00 22 1008.6
20260509091952 75 0 2.0 7.0 0.00 0.00 0.00 22 1008.6
20260509091328 75 0 1.0 7.0 0.00 0.00 0.00 21 1008.8
20260509091008 76 0 1.0 7.0 0.00 0.00 0.00 22 1008.7
20260509090651 76 0 1.0 3.0 0.00 0.00 0.00 22 1008.7
20260509090335 76 0 1.0 3.0 0.00 0.00 0.00 21 1008.7
20260509090016 76 0 0.0 3.0 0.00 0.00 0.00 21 1008.6
20260509085655 76 0 0.0 2.0 0.00 0.00 0.00 21 1008.8
20260509085330 76 0 0.0 0.0 0.00 0.00 0.00 20 1008.7
20260509085016 76 0 1.0 4.0 0.00 0.00 0.00 20 1008.8
20260509084058 77 0 1.0 3.0 0.00 0.00 0.00 20 1008.7
20260509083733 77 0 1.0 3.0 0.00 0.00 0.00 20 1008.7
20260509083411 77 0 1.0 3.0 0.00 0.00 0.00 20 1008.7
20260509083047 78 0 1.0 2.0 0.00 0.00 0.00 20 1008.7
20260509082725 78 0 0.0 2.0 0.00 0.00 0.00 20 1008.7
20260509082408 78 0 0.0 2.0 0.00 0.00 0.00 19 1008.7
20260509082049 78 0 1.0 2.0 0.00 0.00 0.00 19 1008.8
20260509081427 78 0 0.0 2.0 0.00 0.00 0.00 20 1008.7
20260509081108 79 0 0.0 1.0 0.00 0.00 0.00 19 1008.7
20260509080440 79 0 0.0 3.0 0.00 0.00 0.00 20 1008.7
20260509080116 79 0 1.0 3.0 0.00 0.00 0.00 19 1008.7
20260509075755 79 0 1.0 4.0 0.00 0.00 0.00 19 1008.7
20260509075436 79 0 1.0 4.0 0.00 0.00 0.00 18 1008.8
20260509075115 79 0 2.0 4.0 0.00 0.00 0.00 19 1008.8
20260509074750 79 0 1.0 4.0 0.00 0.00 0.00 18 1008.8
20260509074432 79 0 1.0 4.0 0.00 0.00 0.00 18 1008.9
20260509074107 80 0 0.0 4.0 0.00 0.00 0.00 18 1008.8
20260509073750 80 0 0.0 1.0 0.00 0.00 0.00 18 1008.9
20260509073434 80 0 0.0 4.0 0.00 0.00 0.00 17 1008.9
20260509073118 81 0 1.0 4.0 0.00 0.00 0.00 17 1008.9
20260509072756 81 0 1.0 4.0 0.00 0.00 0.00 17 1008.9
20260509072431 81 0 2.0 4.0 0.00 0.00 0.00 17 1008.8
20260509072117 81 0 2.0 4.0 0.00 0.00 0.00 17 1008.8
20260509071800 82 0 2.0 4.0 0.00 0.00 0.00 17 1008.8
20260509071143 82 0 1.0 3.0 0.00 0.00 0.00 17 1008.8
20260509070827 82 0 1.0 7.0 0.00 0.00 0.00 16 1008.8
20260509070509 83 0 1.0 7.0 0.00 0.00 0.00 17 1008.7
20260509070153 83 0 1.0 7.0 0.00 0.00 0.00 16 1008.7
20260509065832 83 0 2.0 7.0 0.00 0.00 0.00 16 1008.8
20260509065509 83 0 2.0 7.0 0.00 0.00 0.00 16 1008.6
20260509065154 83 0 2.0 7.0 0.00 0.00 0.00 16 1008.6
20260509064837 83 0 2.0 4.0 0.00 0.00 0.00 16 1008.6
20260509064212 83 0 3.0 7.0 0.00 0.00 0.00 15 1008.5
20260509063849 84 0 3.0 7.0 0.00 0.00 0.00 16 1008.5
20260509063525 84 0 3.0 10.0 0.00 0.00 0.00 16 1008.6
20260509063210 84 0 3.0 10.0 0.00 0.00 0.00 16 1008.5
20260509062846 84 0 4.0 10.0 0.00 0.00 0.00 15 1008.5
20260509062230 84 0 4.0 10.0 0.00 0.00 0.00 16 1008.5
20260509061904 84 0 4.0 10.0 0.00 0.00 0.00 15 1008.4
20260509061546 84 0 4.0 10.0 0.00 0.00 0.00 15 1008.4
20260509061225 84 0 4.0 10.0 0.00 0.00 0.00 16 1008.4
20260509060904 84 0 5.0 10.0 0.00 0.00 0.00 15 1008.6
20260509060547 84 0 5.0 10.0 0.00 0.00 0.00 16 1008.5
20260509060224 84 0 5.0 10.0 0.00 0.00 0.00 15 1008.5
20260509055604 84 0 4.0 11.0 0.00 0.00 0.00 15 1008.5
20260509054936 84 0 4.0 11.0 0.00 0.00 0.00 16 1008.4
20260509054615 84 0 5.0 11.0 0.00 0.00 0.00 15 1008.5
20260509054251 84 0 5.0 11.0 0.00 0.00 0.00 16 1008.5
20260509053935 84 0 5.0 11.0 0.00 0.00 0.00 15 1008.5
20260509053619 84 0 4.0 11.0 0.00 0.00 0.00 16 1008.5
20260509053257 84 0 4.0 11.0 0.00 0.00 0.00 15 1008.5
20260509052933 84 0 4.0 8.0 0.00 0.00 0.00 16 1008.5
20260509052618 85 0 3.0 8.0 0.00 0.00 0.00 16 1008.5
20260509052300 85 0 3.0 8.0 0.00 0.00 0.00 16 1008.5
20260509051936 85 0 3.0 8.0 0.00 0.00 0.00 15 1008.5
20260509051611 86 0 3.0 8.0 0.00 0.00 0.00 15 1008.5
20260509051251 86 0 3.0 8.0 0.00 0.00 0.00 15 1008.5
20260509050928 86 0 3.0 8.0 0.00 0.00 0.00 15 1008.4
20260509050612 86 0 4.0 8.0 0.00 0.00 0.00 15 1008.4
20260509050249 86 0 4.0 11.0 0.00 0.00 0.00 15 1008.4
20260509045623 86 0 5.0 11.0 0.00 0.00 0.00 14 1008.4
20260509045308 86 0 5.0 11.0 0.00 0.00 0.00 14 1008.4
20260509044642 87 0 5.0 11.0 0.00 0.00 0.00 14 1008.3
20260509044324 87 0 4.0 11.0 0.00 0.00 0.00 14 1008.4
20260509044004 87 0 4.0 11.0 0.00 0.00 0.00 14 1008.3
20260509043648 87 0 4.0 11.0 0.00 0.00 0.00 15 1008.4
20260509043325 87 0 5.0 11.0 0.00 0.00 0.00 14 1008.3
20260509043002 87 0 5.0 10.0 0.00 0.00 0.00 14 1008.3
20260509042642 88 0 5.0 10.0 0.00 0.00 0.00 14 1008.3
20260509042322 88 0 5.0 12.0 0.00 0.00 0.00 14 1008.2
20260509042006 88 0 5.0 12.0 0.00 0.00 0.00 13 1008.2
20260509041647 88 0 5.0 12.0 0.00 0.00 0.00 13 1008.2
20260509041331 88 0 6.0 12.0 0.00 0.00 0.00 14 1008.2
20260509041012 88 0 6.0 12.0 0.00 0.00 0.00 13 1008.2
20260509040651 88 0 5.0 12.0 0.00 0.00 0.00 13 1008.1
20260509040331 88 0 5.0 11.0 0.00 0.00 0.00 13 1008.0
20260509040016 88 0 5.0 11.0 0.00 0.00 0.00 13 1008.0
20260509035652 88 0 5.0 11.0 0.00 0.00 0.00 13 1008.1
20260509035329 88 0 5.0 11.0 0.00 0.00 0.00 13 1008.0
20260509035003 88 0 5.0 11.0 0.00 0.00 0.00 13 1008.1
20260509034347 88 0 5.0 10.0 0.00 0.00 0.00 12 1008.0
20260509034024 89 0 5.0 10.0 0.00 0.00 0.00 12 1008.0
20260509033408 89 0 4.0 9.0 0.00 0.00 0.00 12 1007.9
20260509033047 89 0 4.0 13.0 0.00 0.00 0.00 12 1007.8
20260509032721 89 0 4.0 13.0 0.00 0.00 0.00 12 1007.8
20260509032104 90 0 5.0 13.0 0.00 0.00 0.00 12 1007.7
20260509031739 90 0 5.0 13.0 0.00 0.00 0.00 12 1007.8
20260509031418 90 0 5.0 13.0 0.00 0.00 0.00 11 1007.7
20260509031052 90 0 5.0 11.0 0.00 0.00 0.00 11 1007.6
20260509030736 90 0 6.0 12.0 0.00 0.00 0.00 11 1007.6
20260509030412 90 0 6.0 12.0 0.00 0.00 0.00 11 1007.6
20260509030053 90 0 6.0 12.0 0.00 0.00 0.00 10 1007.5
20260509025738 91 0 6.0 12.0 0.00 0.00 0.00 11 1007.5
20260509025420 91 0 5.0 12.0 0.00 0.00 0.00 11 1007.4
20260509025053 91 0 4.0 12.0 0.00 0.00 0.00 10 1007.4
20260509024732 91 0 3.0 8.0 0.00 0.00 0.00 10 1007.4
20260509024408 91 0 3.0 12.0 0.00 0.00 0.00 10 1007.3
20260509024049 91 180 3.0 12.0 0.00 0.00 0.00 10 1007.3
20260509023725 91 248 5.0 12.0 0.00 0.00 0.00 10 1007.3
20260509023403 91 242 5.0 12.0 0.00 0.00 0.00 10 1007.2
20260509023039 91 252 5.0 12.0 0.00 0.00 0.00 10 1007.3
20260509022721 92 278 4.0 12.0 0.00 0.00 0.00 10 1007.3
20260509022406 92 249 3.0 9.0 0.00 0.00 0.00 11 1007.2
20260509022046 92 270 3.0 9.0 0.00 0.00 0.00 11 1007.2
20260509021729 93 287 4.0 9.0 0.00 0.00 0.00 10 1007.2
20260509021409 93 267 4.0 9.0 0.00 0.00 0.00 9 1007.3
20260509021049 93 286 4.0 9.0 0.00 0.00 0.00 9 1007.3
20260509020725 94 292 4.0 9.0 0.00 0.00 0.00 8 1007.2
20260509020405 94 273 4.0 10.0 0.00 0.00 0.00 9 1007.0
20260509020042 94 303 4.0 10.0 0.00 0.00 0.00 8 1007.0
20260509015725 94 299 4.0 10.0 0.00 0.00 0.00 8 1007.0
20260509015359 94 0 5.0 11.0 0.00 0.00 0.00 8 1007.0
20260509015045 94 334 5.0 11.0 0.00 0.00 0.00 8 1006.9
20260509014422 95 317 5.0 13.0 0.00 0.00 0.00 8 1006.9
20260509014056 95 333 3.0 13.0 0.00 0.00 0.00 8 1006.9
20260509013740 95 307 3.0 13.0 0.00 0.00 0.00 8 1006.9
20260509013420 95 350 3.0 13.0 0.00 0.00 0.00 8 1006.9
20260509013106 95 344 4.0 13.0 0.00 0.00 0.00 8 1006.8
20260509012740 95 5 3.0 13.0 0.00 0.00 0.00 8 1006.8
20260509011816 95 350 4.0 10.0 0.00 0.00 0.00 8 1006.9
20260509011157 95 317 3.0 16.0 0.00 0.00 0.00 9 1007.0
20260509010832 96 311 5.0 16.0 0.00 0.00 0.00 9 1007.0
20260509010510 96 25 7.0 16.0 0.00 0.00 0.00 8 1007.0
20260509010151 96 355 8.0 16.0 0.00 0.00 0.00 8 1007.0
20260509005826 96 321 7.0 16.0 0.00 0.00 0.00 8 1007.0
20260509005205 96 44 6.0 15.0 0.00 0.00 0.00 9 1006.8
20260509004850 96 85 4.0 15.0 0.00 0.00 0.00 9 1006.7
20260509004531 96 88 3.0 8.0 0.00 0.00 0.00 9 1007.0
20260509004206 97 164 3.0 15.0 0.00 0.00 0.00 8 1007.2
20260509003846 97 316 4.0 15.0 0.00 0.00 0.00 9 1007.3
20260509003229 97 263 6.0 15.0 0.00 0.00 0.00 9 1007.3
20260509002914 98 311 6.0 15.0 0.00 0.00 0.00 8 1007.3
20260509002556 98 315 7.0 15.0 0.00 0.00 0.00 9 1007.3
20260509001937 98 244 7.0 14.0 0.00 0.00 0.00 10 1007.2
20260509001621 98 242 6.0 14.0 0.00 0.00 0.00 9 1007.2
20260509001259 98 273 5.0 11.0 0.00 0.00 0.00 9 1007.3
20260509000944 98 279 5.0 16.0 0.00 0.00 0.00 9 1007.2
20260509000322 99 263 6.0 16.0 0.00 0.00 0.00 9 1007.4
20260509000004 99 234 6.0 16.0 0.00 0.00 0.00 9 1007.5
20260508235645 98 286 6.0 16.0 0.00 0.00 0.00 9 1007.1
20260508235327 98 155 7.0 16.0 0.00 0.00 0.00 8 1007.4
20260508234710 98 228 7.0 14.0 0.00 0.00 0.00 8 1007.6
20260508234354 98 207 6.0 14.0 0.00 0.00 0.00 9 1007.5
20260508234040 99 246 5.0 14.0 0.00 0.00 0.00 9 1007.6
20260508233418 98 305 6.0 14.0 0.00 0.00 0.00 9 1007.6
20260508233055 99 300 7.0 14.0 0.00 0.00 0.00 8 1007.8
20260508232730 99 219 6.0 14.0 0.00 0.00 0.00 8 1007.8
20260508232405 99 246 6.0 14.0 0.00 0.00 0.00 8 1007.8
20260508231742 99 206 7.0 13.0 0.00 0.00 0.00 9 1007.8
20260508230522 98 198 8.0 16.0 0.00 0.00 0.00 8 1008.0
20260508230203 98 199 7.0 16.0 0.00 0.00 0.00 8 1008.1
20260508225846 99 209 7.0 16.0 0.00 0.00 0.00 9 1008.1
20260508225521 99 270 5.0 14.0 0.00 0.00 0.00 10 1008.1
20260508225159 99 244 6.0 14.0 0.00 0.00 0.00 9 1008.2
20260508224540 99 119 6.0 11.0 0.00 0.00 0.00 9 1008.2
20260508224223 99 151 5.0 11.0 0.00 0.00 0.00 8 1008.2
20260508223908 99 157 4.0 10.0 0.00 0.00 0.00 9 1008.4
20260508223543 99 220 2.0 9.0 0.00 0.00 0.00 9 1008.5
20260508223226 100 265 2.0 8.0 0.00 0.00 0.00 9 1008.4
20260508222905 99 171 1.0 5.0 0.00 0.00 0.00 9 1008.6
20260508222551 99 59 1.0 4.0 0.00 0.00 0.00 9 1008.6
20260508221930 99 49 2.0 9.0 0.00 0.00 0.00 8 1008.7
20260508221613 99 50 3.0 9.0 0.00 0.00 0.00 8 1008.8
20260508221251 100 76 4.0 10.0 0.00 0.00 0.00 10 1008.9
20260508220627 101 118 4.0 10.0 0.00 0.00 0.00 10 1009.0
20260508220004 99 86 4.0 12.0 0.00 0.00 0.00 11 1009.1
20260508215346 100 101 5.0 13.0 0.00 0.00 0.00 10 1009.3
20260508215030 99 128 4.0 13.0 0.00 0.00 0.00 8 1009.2
20260508214715 100 234 5.0 13.0 0.00 0.00 0.00 11 1009.4
20260508214358 99 172 5.0 13.0 0.00 0.00 0.00 9 1009.3
20260508214043 99 186 6.0 13.0 0.00 0.00 0.00 9 1009.4
20260508213720 99 246 5.0 13.0 0.00 0.00 0.00 9 1009.4
20260508213407 99 223 5.0 12.0 0.00 0.00 0.00 9 1009.4
20260508213044 99 197 4.0 12.0 0.00 0.00 0.00 9 1009.4
20260508212719 99 133 3.0 10.0 0.00 0.00 0.00 10 1009.5
20260508212359 99 242 3.0 9.0 0.00 0.00 0.00 10 1009.5
20260508212042 98 265 4.0 9.0 0.00 0.00 0.00 10 1009.6
20260508211716 99 277 4.0 9.0 0.00 0.00 0.00 9 1009.7
20260508211400 99 225 4.0 9.0 0.00 0.00 0.00 9 1009.7
20260508211042 99 224 3.0 9.0 0.00 0.00 0.00 9 1009.7
20260508210723 99 74 2.0 9.0 0.00 0.00 0.00 9 1009.7
20260508210404 99 157 2.0 9.0 0.00 0.00 0.00 10 1009.7
20260508210048 99 213 1.0 11.0 0.00 0.00 0.00 9 1009.7
20260508205728 100 340 2.0 11.0 0.00 0.00 0.00 10 1009.8
20260508205105 100 115 3.0 11.0 0.00 0.00 0.00 9 1009.9
20260508204742 100 318 3.0 11.0 0.00 0.00 0.00 10 1009.9
20260508204420 100 324 2.0 11.0 0.00 0.00 0.00 9 1010.0
20260508204103 98 264 2.0 9.0 0.00 0.00 0.00 9 1009.9
20260508203738 98 158 3.0 9.0 0.00 0.00 0.00 9 1010.0
20260508203413 98 244 2.0 14.0 0.00 0.00 0.00 9 1010.2
20260508203051 98 198 3.0 14.0 0.00 0.00 0.00 9 1010.2
20260508202732 98 249 3.0 14.0 0.00 0.00 0.00 11 1010.2
20260508202414 98 275 5.0 14.0 0.00 0.00 0.00 9 1010.4
20260508202049 99 214 3.0 14.0 0.00 0.00 0.00 9 1010.5
20260508201727 99 210 2.0 13.0 0.00 0.00 0.00 10 1010.5
20260508201404 97 281 2.0 11.0 0.00 0.00 0.00 9 1010.4
20260508201040 98 220 3.0 8.0 0.00 0.00 0.00 9 1010.4
20260508200423 97 233 4.0 8.0 0.00 0.00 0.00 9 1010.6
20260508200100 97 161 3.0 8.0 0.00 0.00 0.00 11 1010.7
20260508195738 97 150 3.0 10.0 0.00 0.00 0.00 10 1010.7
20260508195415 97 223 3.0 10.0 0.00 0.00 0.00 10 1010.8
20260508194756 98 193 5.0 10.0 0.00 0.00 0.00 10 1010.9
20260508194442 98 294 4.0 10.0 0.00 0.00 0.00 9 1010.8
20260508194126 99 176 3.0 10.0 0.00 0.00 0.00 9 1010.9
20260508193203 98 9 1.0 8.0 0.00 0.00 0.00 11 1011.0
20260508192847 97 159 2.0 8.0 0.00 0.00 0.00 10 1011.1
20260508192527 97 79 2.0 8.0 0.00 0.00 0.00 11 1011.2
20260508192205 97 128 2.0 8.0 0.00 0.00 0.00 11 1011.2
20260508191843 96 45 1.0 5.0 0.00 0.00 0.00 11 1011.3
20260508191519 97 163 1.0 11.0 0.00 0.00 0.00 10 1011.4
20260508190900 96 329 2.0 11.0 0.00 0.00 0.00 10 1011.5
20260508190542 96 333 2.0 11.0 0.00 0.00 0.00 13 1011.5
20260508190219 95 262 3.0 11.0 0.00 0.00 0.00 12 1011.5
20260508185858 96 241 3.0 11.0 0.00 0.00 0.00 10 1011.5
20260508185533 96 105 4.0 8.0 0.00 0.00 0.00 10 1011.5
20260508185212 96 177 3.0 8.0 0.00 0.00 0.00 11 1011.7
20260508184848 97 206 3.0 8.0 0.00 0.00 0.00 13 1011.7
20260508184532 97 196 2.0 8.0 0.00 0.00 0.00 11 1011.7
20260508184207 96 87 3.0 8.0 0.00 0.00 0.00 10 1011.8
20260508183845 97 142 3.0 8.0 0.00 0.00 0.00 10 1011.8
20260508183226 98 325 2.0 7.0 0.00 0.00 0.00 11 1012.0
20260508182909 98 307 2.0 7.0 0.00 0.00 0.00 12 1012.0
20260508182554 96 56 2.0 6.0 0.00 0.00 0.00 11 1012.1
20260508182230 96 96 2.0 7.0 0.00 0.00 0.00 12 1012.1
20260508181910 96 110 2.0 7.0 0.00 0.00 0.00 12 1012.1
20260508181547 96 64 2.0 7.0 0.00 0.00 0.00 12 1012.1
20260508181228 96 297 2.0 7.0 0.00 0.00 0.00 10 1012.1
20260508180910 95 275 1.0 7.0 0.00 0.00 0.00 11 1012.1
20260508180544 95 22 1.0 7.0 0.00 0.00 0.00 13 1012.1
20260508180224 95 86 1.0 7.0 0.00 0.00 0.00 12 1012.2
20260508175907 95 278 2.0 7.0 0.00 0.00 0.00 11 1012.1
20260508175242 94 5 2.0 6.0 0.00 0.00 0.00 13 1012.1
20260508174622 94 75 2.0 6.0 0.00 0.00 0.00 15 1012.2
20260508174307 93 101 1.0 6.0 0.00 0.00 0.00 15 1012.3
20260508173943 93 104 2.0 6.0 0.00 0.00 0.00 11 1012.3
20260508173620 94 17 1.0 6.0 0.00 0.00 0.00 13 1012.4
20260508173259 94 93 2.0 6.0 0.00 0.00 0.00 13 1012.4
20260508172940 93 343 2.0 8.0 0.00 0.00 0.00 15 1012.4
20260508172618 93 288 3.0 8.0 0.00 0.00 0.00 14 1012.5
20260508172301 93 54 3.0 8.0 0.00 0.00 0.00 13 1012.4
20260508171941 93 67 3.0 8.0 0.00 0.00 0.00 15 1012.4
20260508171617 93 42 2.0 8.0 0.00 0.00 0.00 15 1012.4
20260508171255 93 28 2.0 8.0 0.00 0.00 0.00 15 1012.4
20260508170940 92 126 2.0 6.0 0.00 0.00 0.00 14 1012.5
20260508170622 92 78 2.0 6.0 0.00 0.00 0.00 14 1012.5
20260508170302 92 118 2.0 11.0 0.00 0.00 0.00 15 1012.5
20260508165948 93 73 3.0 11.0 0.00 0.00 0.00 15 1012.5
20260508165628 92 19 3.0 11.0 0.00 0.00 0.00 14 1012.5
20260508165308 92 33 4.0 11.0 0.00 0.00 0.00 13 1012.5
20260508164943 92 14 4.0 11.0 0.00 0.00 0.00 13 1012.4
20260508164621 92 344 4.0 11.0 0.00 0.00 0.00 13 1012.5
20260508164256 91 344 4.0 9.0 0.00 0.00 0.00 13 1012.6
20260508163934 91 355 4.0 9.0 0.00 0.00 0.00 13 1012.5
20260508163611 91 35 4.0 9.0 0.00 0.00 0.00 13 1012.5
20260508163256 91 337 4.0 8.0 0.00 0.00 0.00 13 1012.6
20260508162636 91 32 3.0 7.0 0.00 0.00 0.00 14 1012.6
20260508162310 90 46 2.0 7.0 0.00 0.00 0.00 16 1012.6
20260508161946 89 0 2.0 7.0 0.00 0.00 0.00 16 1012.5
20260508161625 89 61 1.0 5.0 0.00 0.00 0.00 17 1012.6
20260508160708 88 42 0.0 4.0 0.00 0.00 0.00 18 1012.6
20260508160343 88 75 0.0 4.0 0.00 0.00 0.00 16 1012.5
20260508160026 87 111 0.0 4.0 0.00 0.00 0.00 16 1012.5
20260508155705 86 269 0.0 4.0 0.00 0.00 0.00 16 1012.7
20260508155351 86 192 0.0 4.0 0.00 0.00 0.00 16 1012.6
20260508155031 86 159 0.0 4.0 0.00 0.00 0.00 19 1012.6
20260508154705 85 21 0.0 2.0 0.00 0.00 0.00 19 1012.6
20260508154348 85 51 0.0 0.0 0.00 0.00 0.00 17 1012.6
20260508154028 85 51 0.0 2.0 0.00 0.00 0.00 18 1012.7
20260508153707 84 77 0.0 5.0 0.00 0.00 0.00 21 1012.6
20260508153351 84 148 1.0 5.0 0.00 0.00 0.00 19 1012.6
20260508153035 84 151 1.0 5.0 0.00 0.00 0.00 19 1012.7